Location: Calberlah
(52.4230°N, 10.6240°E)
Time: 16:26:22
(UTC+00:00)

Cosmos 2154 Rocket - Pass Details

Date: 19 May 2025
Orbit: 965 x 996 km, 82.9° (Epoch: 16 June)

Event Time Altitude Azimuth Distance (km) Brightness Sun altitude
Rises 19:48:40 0° 348° (NNW) 3,669 8.0 -5.0°
Reaches altitude 10° 19:51:10 10° 347° (NNW) 2,717 7.3 -5.3°
Maximum altitude 19:57:23 77° 264° (W) 995 4.2 -6.0°
Drops below altitude 10° 20:03:33 10° 179° (S) 2,705 5.9 -6.7°
Sets 20:06:03 0° 178° (S) 3,651 6.5 -6.9°
